DW4679 Weather Reports


time (UTC)temp
C
wind
direction
speed
KPH
gust
KPH
rain 1hr
cm
rain 24hr
cm
rain mn
cm
humidity
%
barometer
mb
20260507172235 19 58 3.2 9.7 0.00 0.00 0.00 67 1015.6
20260507171728 19 148 1.6 9.7 0.00 0.00 0.00 68 1015.7
20260507171451 19 131 0.0 8.0 0.00 0.00 0.00 68 1015.9
20260507170713 18 101 3.2 8.0 0.00 0.00 0.00 71 1015.9
20260507170204 19 179 3.2 8.0 0.00 0.00 0.00 69 1015.8
20260507165656 18 64 1.6 6.4 0.00 0.00 0.00 71 1015.8
20260507165147 17 356 1.6 6.4 0.00 0.00 0.00 71 1015.8
20260507164640 17 287 0.0 9.7 0.00 0.00 0.00 72 1015.9
20260507164131 17 326 0.0 9.7 0.00 0.00 0.00 74 1016.1
20260507163624 16 170 1.6 6.4 0.00 0.00 0.00 76 1016.1
20260507163115 16 298 3.2 8.0 0.00 0.00 0.00 78 1016.2
20260507162607 15 79 0.0 12.9 0.00 0.00 0.00 80 1016.2
20260507162059 16 251 4.8 12.9 0.00 0.00 0.00 79 1016.3
20260507161551 16 182 4.8 9.7 0.00 0.00 0.00 79 1016.3
20260507161043 17 200 6.4 8.0 0.00 0.00 0.00 78 1016.2
20260507160536 15 165 0.0 8.0 0.00 0.00 0.00 84 1016.2
20260507160028 15 12 3.2 8.0 0.00 0.00 0.00 86 1016.1
20260507155519 15 271 6.4 8.0 0.00 0.00 0.00 86 1016.3
20260507155011 15 225 3.2 6.4 0.00 0.00 0.00 86 1016.2
20260507154503 15 175 3.2 4.8 0.00 0.00 0.00 86 1016.2
20260507153956 15 50 1.6 6.4 0.00 0.00 0.00 87 1016.0
20260507153718 15 249 0.0 6.4 0.00 0.00 0.00 88 1016.3
20260507152939 15 114 4.8 6.4 0.00 0.00 0.00 88 1016.1
20260507152432 14 127 3.2 6.4 0.00 0.00 0.00 89 1015.9
20260507151923 14 211 3.2 6.4 0.00 0.00 0.00 89 1015.9
20260507151647 14 324 1.6 6.4 0.00 0.00 0.00 91 1016.0
20260507151138 14 114 3.2 6.4 0.00 0.00 0.00 92 1016.2
20260507150400 13 49 3.2 4.8 0.00 0.00 0.00 92 1016.0
20260507145851 13 186 0.0 4.8 0.00 0.00 0.00 92 1016.2
20260507145345 13 73 1.6 4.8 0.00 0.00 0.00 93 1015.9
20260507144835 13 119 1.6 3.2 0.00 0.00 0.00 94 1016.0
20260507144327 13 152 1.6 3.2 0.00 0.00 0.00 94 1015.9
20260507143819 13 326 0.0 3.2 0.00 0.00 0.00 94 1015.9
20260507143311 13 227 0.0 6.4 0.00 0.00 0.00 95 1015.7
20260507142805 13 345 0.0 6.4 0.00 0.00 0.00 95 1015.9
20260507142246 13 85 3.2 3.2 0.00 0.00 0.00 95 1015.8
20260507141737 13 199 0.0 3.2 0.00 0.00 0.00 95 1015.8
20260507141232 13 68 0.0 3.2 0.00 0.00 0.00 95 1015.6
20260507140212 13 184 3.2 4.8 0.00 0.00 0.00 96 1015.7
20260507135704 13 180 3.2 4.8 0.00 0.00 0.00 96 1015.6
20260507135159 13 167 1.6 4.8 0.00 0.00 0.00 96 1015.7
20260507134648 12 119 3.2 4.8 0.00 0.00 0.00 96 1015.4
20260507134143 12 151 3.2 4.8 0.00 0.00 0.00 96 1015.3
20260507133632 12 112 0.0 4.8 0.00 0.00 0.00 96 1015.6
20260507133124 12 113 3.2 6.4 0.00 0.00 0.00 96 1015.6
20260507132616 12 152 3.2 6.4 0.00 0.00 0.00 96 1015.5
20260507132110 12 134 3.2 4.8 0.00 0.00 0.00 96 1015.6
20260507131600 12 151 4.8 4.8 0.00 0.00 0.00 96 1015.4
20260507131323 12 133 1.6 4.8 0.00 0.00 0.00 96 1015.6
20260507130815 12 149 3.2 4.8 0.00 0.00 0.00 96 1015.5
20260507130037 12 143 3.2 4.8 0.00 0.00 0.00 96 1015.4
20260507125528 12 146 3.2 4.8 0.00 0.00 0.00 96 1015.3
20260507125020 12 177 3.2 6.4 0.00 0.00 0.00 96 1015.4
20260507124513 12 161 3.2 6.4 0.00 0.00 0.00 96 1015.3
20260507124004 12 141 4.8 4.8 0.00 0.00 0.00 96 1015.2
20260507123456 12 178 1.6 4.8 0.00 0.00 0.00 96 1015.2
20260507123219 12 141 4.8 6.4 0.00 0.00 0.00 96 1015.2
20260507122711 12 169 3.2 6.4 0.00 0.00 0.00 96 1015.1
20260507121932 12 133 4.8 6.4 0.00 0.00 0.00 96 1015.4
20260507121424 12 194 3.2 6.4 0.00 0.00 0.00 96 1015.2
20260507120918 12 132 6.4 6.4 0.00 0.00 0.00 96 1015.3
20260507120410 12 131 3.2 4.8 0.00 0.00 0.00 95 1015.1
20260507115903 12 145 3.2 3.2 0.00 0.00 0.00 96 1015.1
20260507115353 12 148 1.6 4.8 0.00 0.00 0.00 96 1015.2
20260507114845 12 151 3.2 6.4 0.00 0.00 0.00 95 1015.3
20260507114336 12 148 3.2 6.4 0.00 0.00 0.00 95 1015.1
20260507113830 12 137 4.8 6.4 0.00 0.00 0.00 95 1015.2
20260507113320 12 149 4.8 6.4 0.00 0.00 0.00 96 1015.3
20260507112813 12 155 4.8 6.4 0.00 0.00 0.00 96 1015.1
20260507112307 12 141 4.8 6.4 0.00 0.00 0.00 95 1015.0
20260507112027 12 151 3.2 6.4 0.00 0.00 0.00 96 1015.3
20260507111251 12 152 3.2 4.8 0.00 0.00 0.00 96 1015.3
20260507110743 12 136 4.8 4.8 0.00 0.00 0.00 95 1015.2
20260507110235 12 175 3.2 4.8 0.00 0.00 0.00 96 1015.1
20260507105724 12 141 4.8 4.8 0.00 0.00 0.00 96 1015.5
20260507105217 12 138 3.2 4.8 0.00 0.00 0.00 95 1015.5
20260507104711 12 148 3.2 4.8 0.00 0.00 0.00 95 1015.4
20260507103924 12 139 4.8 4.8 0.00 0.00 0.00 95 1015.4
20260507103144 12 156 3.2 4.8 0.00 0.00 0.00 95 1015.3
20260507102636 12 140 3.2 6.4 0.00 0.00 0.00 95 1015.7
20260507102129 12 144 4.8 6.4 0.00 0.00 0.00 95 1015.6
20260507101622 12 157 3.2 6.4 0.00 0.00 0.00 94 1015.5
20260507101344 12 169 3.2 6.4 0.00 0.00 0.00 95 1015.6
20260507100605 12 138 4.8 6.4 0.00 0.00 0.00 94 1015.8
20260507100057 12 153 3.2 3.2 0.00 0.00 0.00 94 1015.6
20260507095551 12 143 3.2 3.2 0.00 0.00 0.00 94 1015.7
20260507095312 12 177 1.6 3.2 0.00 0.00 0.00 94 1015.8
20260507094532 12 176 3.2 4.8 0.00 0.00 0.00 94 1015.8
20260507094025 12 172 1.6 4.8 0.00 0.00 0.00 94 1015.9
20260507093748 12 143 3.2 4.8 0.00 0.00 0.00 94 1015.9
20260507093242 12 140 3.2 4.8 0.00 0.00 0.00 94 1016.1
20260507091952 13 145 3.2 4.8 0.00 0.00 0.00 94 1016.0
20260507091445 13 143 3.2 4.8 0.00 0.00 0.00 93 1015.8
20260507091208 13 132 4.8 4.8 0.00 0.00 0.00 93 1016.0
20260507090428 13 156 3.2 4.8 0.00 0.00 0.00 94 1016.0
20260507085920 13 178 3.2 6.4 0.00 0.00 0.00 94 1016.1
20260507085644 13 176 3.2 6.4 0.00 0.00 0.00 94 1016.1
20260507085136 13 144 4.8 4.8 0.00 0.00 0.00 94 1016.1
20260507084356 13 160 3.2 6.4 0.00 0.00 0.00 94 1016.3
20260507083851 13 165 3.2 6.4 0.00 0.00 0.00 94 1016.1
20260507083612 13 163 3.2 6.4 0.00 0.00 0.00 94 1016.4
20260507082834 13 163 4.8 6.4 0.00 0.00 0.00 94 1016.5
20260507082326 13 178 3.2 6.4 0.00 0.00 0.00 94 1016.3
20260507081818 13 147 4.8 4.8 0.00 0.00 0.00 93 1016.4
20260507081541 13 152 3.2 3.2 0.00 0.00 0.00 93 1016.4
20260507080801 13 159 3.2 3.2 0.00 0.00 0.00 93 1016.4
20260507080253 13 157 1.6 3.2 0.00 0.00 0.00 92 1016.5
20260507075746 13 159 1.6 3.2 0.00 0.00 0.00 93 1016.5
20260507075508 13 161 3.2 3.2 0.00 0.00 0.00 93 1016.5
20260507074730 13 207 3.2 3.2 0.00 0.00 0.00 93 1016.7
20260507074224 13 172 3.2 3.2 0.00 0.00 0.00 93 1016.6
20260507073713 13 199 1.6 3.2 0.00 0.00 0.00 93 1016.9
20260507073205 13 183 3.2 3.2 0.00 0.00 0.00 92 1016.6
20260507072658 13 193 3.2 6.4 0.00 0.00 0.00 93 1016.6
20260507072149 13 180 3.2 6.4 0.00 0.00 0.00 92 1016.7
20260507071640 13 158 3.2 6.4 0.00 0.00 0.00 92 1016.7
20260507071132 13 169 3.2 6.4 0.00 0.00 0.00 92 1016.8
20260507070624 13 129 4.8 6.4 0.00 0.00 0.00 91 1016.5
20260507070116 13 156 0.0 3.2 0.00 0.00 0.00 91 1016.7
20260507065611 13 166 1.6 3.2 0.00 0.00 0.00 91 1016.8
20260507065100 14 173 0.0 3.2 0.00 0.00 0.00 91 1016.8
20260507064552 13 162 1.6 3.2 0.00 0.00 0.00 91 1016.7
20260507064047 14 137 3.2 3.2 0.00 0.00 0.00 91 1016.9
20260507063538 14 177 1.6 3.2 0.00 0.00 0.00 91 1017.0
20260507063028 14 203 3.2 3.2 0.00 0.00 0.00 91 1016.8
20260507062523 14 188 3.2 3.2 0.00 0.00 0.00 92 1016.9
20260507062014 14 174 3.2 3.2 0.00 0.00 0.00 92 1016.8
20260507061735 14 167 3.2 3.2 0.00 0.00 0.00 92 1016.9
20260507060957 14 180 3.2 3.2 0.00 0.00 0.00 92 1017.0
20260507060450 14 199 3.2 3.2 0.00 0.00 0.00 91 1016.8
20260507055941 14 163 1.6 4.8 0.00 0.00 0.00 91 1016.7
20260507055432 14 172 3.2 4.8 0.00 0.00 0.00 91 1017.0
20260507054926 14 200 3.2 3.2 0.00 0.00 0.00 90 1017.0
20260507054417 14 162 3.2 4.8 0.00 0.00 0.00 90 1016.6
20260507053908 15 205 3.2 4.8 0.00 0.00 0.00 90 1016.6
20260507053400 15 231 4.8 4.8 0.00 0.00 0.00 90 1016.8
20260507053124 14 210 4.8 4.8 0.00 0.00 0.00 90 1016.8
20260507052344 14 181 3.2 4.8 0.00 0.00 0.00 89 1016.7
20260507051328 14 216 3.2 4.8 0.00 0.00 0.00 89 1016.9
20260507050820 14 211 3.2 4.8 0.00 0.00 0.00 89 1016.7
20260507050316 15 186 3.2 3.2 0.00 0.00 0.00 88 1017.0
20260507045805 15 235 0.0 3.2 0.00 0.00 0.00 88 1016.7
20260507045256 15 210 1.6 4.8 0.00 0.00 0.00 88 1016.8
20260507045022 15 190 1.6 4.8 0.00 0.00 0.00 88 1016.6
20260507044242 15 218 3.2 4.8 0.00 0.00 0.00 88 1016.8
20260507044003 15 152 3.2 4.8 0.00 0.00 0.00 87 1016.8
20260507043229 15 166 3.2 6.4 0.00 0.00 0.00 86 1016.8
20260507042716 15 180 3.2 6.4 0.00 0.00 0.00 86 1016.7
20260507042208 15 224 4.8 6.4 0.00 0.00 0.00 86 1016.5
20260507041701 15 172 3.2 6.4 0.00 0.00 0.00 85 1016.6
20260507041153 15 255 3.2 6.4 0.00 0.00 0.00 86 1016.5
20260507040644 15 187 3.2 4.8 0.00 0.00 0.00 85 1016.5
20260507040136 15 217 3.2 4.8 0.00 0.00 0.00 85 1016.5
20260507035629 15 234 0.0 4.8 0.00 0.00 0.00 86 1016.6
20260507035123 15 157 3.2 6.4 0.00 0.00 0.00 85 1016.4
20260507034613 15 132 1.6 8.0 0.00 0.00 0.00 85 1016.4
20260507034104 15 263 1.6 8.0 0.00 0.00 0.00 86 1016.3
20260507033827 15 245 3.2 8.0 0.00 0.00 0.00 85 1016.4
20260507033048 15 229 3.2 8.0 0.00 0.00 0.00 85 1016.3
20260507032543 15 212 3.2 8.0 0.00 0.00 0.00 85 1016.1
20260507032034 16 189 3.2 6.4 0.00 0.00 0.00 84 1016.3
20260507031526 16 265 6.4 8.0 0.00 0.00 0.00 83 1015.9
20260507031247 16 251 3.2 9.7 0.00 0.00 0.00 82 1016.1
20260507030508 16 255 3.2 9.7 0.00 0.00 0.00 82 1016.0
20260507030003 16 273 3.2 9.7 0.00 0.00 0.00 81 1016.0
20260507025452 16 254 4.8 11.3 0.00 0.00 0.00 80 1016.0
20260507024944 16 221 3.2 11.3 0.00 0.00 0.00 79 1015.9
20260507024436 16 216 0.0 9.7 0.00 0.00 0.00 79 1016.0
20260507023929 16 281 3.2 14.5 0.00 0.00 0.00 78 1015.8
20260507023420 16 230 4.8 16.1 0.00 0.00 0.00 78 1015.7
20260507022912 17 245 8.0 16.1 0.00 0.00 0.00 76 1015.7
20260507022406 17 267 6.4 16.1 0.00 0.00 0.00 75 1015.6
20260507021856 17 232 6.4 11.3 0.00 0.00 0.00 74 1015.7
20260507021349 17 255 3.2 12.9 0.00 0.00 0.00 71 1015.7
20260507020841 17 226 4.8 12.9 0.00 0.00 0.00 70 1015.8
20260507020332 17 329 0.0 12.9 0.00 0.00 0.00 71 1015.4
20260507015824 18 272 8.0 12.9 0.00 0.00 0.00 69 1015.7
20260507015317 18 232 3.2 14.5 0.00 0.00 0.00 68 1015.5
20260507014809 18 253 6.4 14.5 0.00 0.00 0.00 70 1015.6
20260507014300 18 208 3.2 16.1 0.00 0.00 0.00 70 1015.4
20260507013752 18 297 11.3 16.1 0.00 0.00 0.00 71 1015.5
20260507013244 18 277 6.4 17.7 0.00 0.00 0.00 69 1015.4
20260507012736 18 252 11.3 17.7 0.00 0.00 0.00 71 1015.6
20260507012231 18 259 8.0 17.7 0.00 0.00 0.00 69 1015.7
20260507011720 18 276 12.9 17.7 0.00 0.00 0.00 67 1015.6
20260507011215 18 257 12.9 19.3 0.00 0.00 0.00 66 1015.5
20260507010704 18 291 9.7 20.9 0.00 0.00 0.00 66 1015.5
20260507010156 18 320 0.0 20.9 0.00 0.00 0.00 65 1015.4
20260507005411 19 282 11.3 17.7 0.00 0.00 0.00 63 1015.5
20260507004632 18 264 9.7 17.7 0.00 0.00 0.00 64 1015.4
20260507004124 18 240 4.8 17.7 0.00 0.00 0.00 65 1015.5
20260507003617 19 285 12.9 19.3 0.00 0.00 0.00 63 1015.5
20260507003110 18 294 6.4 20.9 0.00 0.00 0.00 62 1015.6
20260507002600 18 258 6.4 24.1 0.00 0.00 0.00 62 1015.2
20260507002052 19 295 16.1 24.1 0.00 0.00 0.00 60 1015.2
20260507001815 19 278 4.8 22.5 0.00 0.00 0.00 61 1015.1
20260507001036 18 266 6.4 22.5 0.00 0.00 0.00 62 1015.2
20260507000534 18 337 14.5 20.9 0.00 0.00 0.00 63 1015.3
20260507000020 18 232 6.4 24.1 0.00 0.00 0.00 63 1015.2
20260506235514 19 305 11.3 24.1 0.00 0.00 0.00 63 1015.1
20260506235005 19 273 9.7 20.9 0.00 0.00 0.00 61 1015.2
20260506234500 18 246 3.2 22.5 0.00 0.00 0.00 61 1015.1
20260506233950 19 261 16.1 22.5 0.00 0.00 0.00 63 1015.3
20260506233443 18 328 8.0 25.7 0.00 0.00 0.00 63 1015.2
20260506233203 18 267 12.9 25.7 0.00 0.00 0.00 65 1015.0
20260506232655 19 244 9.7 20.9 0.00 0.00 0.00 62 1015.1
20260506231916 19 288 3.2 20.9 0.00 0.00 0.00 64 1015.2
20260506231408 19 288 14.5 22.5 0.00 0.00 0.00 65 1015.4
20260506230900 18 295 9.7 22.5 0.00 0.00 0.00 66 1015.4
20260506230353 18 273 12.9 24.1 0.00 0.00 0.00 67 1015.3
20260506230115 18 284 11.3 24.1 0.00 0.00 0.00 66 1015.4
20260506225336 19 237 14.5 24.1 0.00 0.00 0.00 64 1015.3
20260506224828 19 315 11.3 24.1 0.00 0.00 0.00 65 1015.5
20260506224551 18 244 11.3 22.5 0.00 0.00 0.00 65 1015.3
20260506224044 18 252 8.0 25.7 0.00 0.00 0.00 66 1015.6
20260506223306 18 267 14.5 25.7 0.00 0.00 0.00 65 1015.6
20260506222756 18 252 12.9 24.1 0.00 0.00 0.00 66 1015.5
20260506222251 18 222 9.7 25.7 0.00 0.00 0.00 65 1015.6
20260506221740 19 317 20.9 24.1 0.00 0.00 0.00 64 1015.5
20260506221232 19 266 6.4 25.7 0.00 0.00 0.00 64 1015.5
20260506220724 19 295 11.3 25.7 0.00 0.00 0.00 64 1015.7
20260506220217 19 249 11.3 22.5 0.00 0.00 0.00 63 1015.9
20260506215709 19 302 9.7 22.5 0.00 0.00 0.00 64 1015.9
20260506215202 19 314 4.8 20.9 0.00 0.00 0.00 63 1015.6
20260506214652 20 224 9.7 20.9 0.00 0.00 0.00 63 1015.8
20260506214144 19 272 11.3 24.1 0.00 0.00 0.00 63 1015.9
20260506213639 19 315 14.5 24.1 0.00 0.00 0.00 63 1015.7
20260506213129 19 260 16.1 22.5 0.00 0.00 0.00 63 1015.9
20260506212620 19 263 8.0 22.5 0.00 0.00 0.00 62 1015.9
20260506212112 19 240 8.0 22.5 0.00 0.00 0.00 63 1016.1
20260506211604 19 296 14.5 22.5 0.00 0.00 0.00 63 1016.0
20260506211057 19 237 9.7 22.5 0.00 0.00 0.00 63 1015.8
20260506210549 19 315 11.3 25.7 0.00 0.00 0.00 62 1015.9
20260506210040 19 314 17.7 25.7 0.00 0.00 0.00 62 1016.0
20260506205532 19 305 12.9 20.9 0.00 0.00 0.00 62 1016.0
20260506205026 19 308 11.3 24.1 0.00 0.00 0.00 61 1016.2
20260506204517 20 275 14.5 25.7 0.00 0.00 0.00 61 1015.8
20260506204008 20 337 16.1 29.0 0.00 0.00 0.00 61 1015.9
20260506203731 19 311 14.5 29.0 0.00 0.00 0.00 63 1015.9
20260506202954 20 314 11.3 25.7 0.00 0.00 0.00 62 1015.9
20260506202718 20 248 14.5 29.0 0.00 0.00 0.00 61 1016.0
20260506202210 20 311 17.7 29.0 0.00 0.00 0.00 60 1016.0
20260506201428 20 279 9.7 24.1 0.00 0.00 0.00 62 1016.0
20260506200921 20 238 9.7 24.1 0.00 0.00 0.00 61 1016.2
20260506200413 20 290 11.3 20.9 0.00 0.00 0.00 60 1016.0
20260506195905 20 258 11.3 22.5 0.00 0.00 0.00 59 1016.2
20260506195359 20 349 4.8 22.5 0.00 0.00 0.00 58 1016.2
20260506194340 20 232 0.0 17.7 0.00 0.00 0.00 58 1016.4
20260506193835 20 300 4.8 17.7 0.00 0.00 0.00 57 1016.7
20260506193325 20 259 3.2 20.9 0.00 0.00 0.00 59 1016.5
20260506193047 20 264 12.9 20.9 0.00 0.00 0.00 59 1016.4
20260506192311 20 234 6.4 16.1 0.00 0.00 0.00 59 1016.7
20260506191802 19 15 1.6 14.5 0.00 0.00 0.00 59 1016.6
20260506191252 19 211 8.0 17.7 0.00 0.00 0.00 61 1016.8
20260506190745 20 256 9.7 17.7 0.00 0.00 0.00 60 1016.6
20260506190238 20 278 9.7 17.7 0.00 0.00 0.00 59 1016.6
20260506185729 19 257 4.8 19.3 0.00 0.00 0.00 60 1016.6
20260506185222 19 306 12.9 19.3 0.00 0.00 0.00 60 1016.7
20260506184712 20 8 8.0 17.7 0.00 0.00 0.00 59 1017.0
20260506184206 20 250 6.4 16.1 0.00 0.00 0.00 60 1017.2
20260506183659 18 322 4.8 19.3 0.00 0.00 0.00 60 1016.9
20260506183149 19 102 1.6 19.3 0.00 0.00 0.00 61 1017.2
20260506182641 19 300 9.7 16.1 0.00 0.00 0.00 60 1017.1
20260506182132 18 219 1.6 16.1 0.00 0.00 0.00 61 1017.1
20260506181624 18 109 4.8 14.5 0.00 0.00 0.00 59 1017.3
20260506181118 18 311 11.3 14.5 0.00 0.00 0.00 60 1017.2
20260506180608 17 74 0.0 16.1 0.00 0.00 0.00 60 1017.3
20260506175824 18 338 4.8 19.3 0.00 0.00 0.00 60 1017.2
20260506175045 18 237 4.8 19.3 0.00 0.00 0.00 61 1017.4
20260506174537 19 308 8.0 14.5 0.00 0.00 0.00 60 1017.2
20260506174259 18 80 4.8 16.1 0.00 0.00 0.00 60 1017.3
20260506173751 18 261 6.4 17.7 0.00 0.00 0.00 60 1017.4
20260506173012 18 292 8.0 17.7 0.00 0.00 0.00 60 1017.6